RH
98 99 99 96 77 63 58 45 41 33 31 33 31 29 26 26 26 28 28 29 28 29 30 31 34 37 40 42 40 44 80 79 81 84 88 87 87 88 80 77 80 80 78 77 76 74 72 73 74 70 76 71 65 64
98 98 99 98 75 77 51 47 37 35 33 32 33 30 26 27 27 27 29 31 30 29 28 31 31 33 34 36 40 41 70 86 83 81 82 90 84 89 88 82 79 79 77 74 70 70 67 73 74 78 76 79 78 74
98 99 99 96 79 67 58 43 36 40 33 33 35 30 28 31 29 26 27 26 29 27 29 32 37 38 34 34 37 39 55 84 85 85 86 89 91 86 86 83 81 77 78 75 69 68 67 69 69 69 73 73 75 75
97 99 99 95 82 64 53 43 41 40 35 35 36 32 33 35 33 27 24 25 26 26 29 35 40 42 39 38 38 37 46 65 80 82 87 89 90 89 87 82 84 79 76 76 72 69 71 73 76 74 75 74 74 73
98 99 99 94 76 54 47 47 44 39 36 36 37 34 42 33 30 24 24 25 26 29 27 33 37 41 44 39 38 39 41 56 72 80 85 90 92 90 89 83 83 78 76 77 77 73 72 74 77 76 77 76 75 75
95 98 92 90 75 57 48 51 47 43 37 39 39 40 43 35 29 26 24 25 27 31 30 34 35 38 40 50 44 38 40 42 58 69 80 85 87 91 93 85 77 75 76 78 78 76 76 77 79 79 78 76 75 75
80 89 96 90 69 58 56 55 47 43 39 44 40 44 49 36 33 26 23 24 27 31 31 34 36 35 37 43 53 54 48 43 45 53 66 77 87 90 86 88 78 77 76 78 82 82 80 77 78 80 81 79 76 73
97 96 96 88 76 61 64 50 47 42 43 47 45 47 52 39 37 31 25 24 28 30 30 33 32 32 33 37 48 60 65 65 56 49 55 76 86 89 87 84 80 80 78 77 82 85 84 82 81 81 79 78 76 74
99 96 96 91 72 69 55 50 49 44 47 47 49 54 55 41 41 33 29 29 30 30 33 34 34 34 30 34 46 61 65 74 77 77 65 65 81 88 84 84 83 85 84 83 84 84 83 82 80 79 78 76 74 70
98 96 92 82 77 67 52 54 49 48 51 51 55 59 55 44 46 38 37 36 33 35 34 35 32 32 31 34 48 61 68 77 84 81 80 77 75 75 80 85 85 83 85 87 85 82 79 76 75 76 76 76 73 69
98 96 94 85 77 59 54 55 48 55 55 55 56 62 54 51 52 44 42 41 39 40 37 30 30 33 33 37 49 61 71 79 86 88 92 90 91 93 92 92 90 84 83 86 85 82 80 77 76 77 75 72 69 66
97 96 93 83 64 54 57 52 54 55 55 58 61 62 58 60 56 49 49 45 41 41 32 33 30 31 33 39 49 61 71 81 87 94 95 92 96 95 94 92 89 87 83 79 78 76 75 72 71 71 72 73 74 72
97 96 86 71 58 58 59 54 54 58 61 60 63 63 62 61 58 51 52 49 41 37 35 33 31 30 35 42 47 60 72 76 88 92 93 96 98 98 98 97 95 92 89 86 84 81 77 75 75 74 74 73 68 61
96 92 80 64 57 60 54 58 61 65 64 66 65 67 63 60 54 50 45 41 39 38 37 35 35 34 37 41 47 58 64 82 88 89 92 95 96 97 97 99 96 96 96 93 87 78 70 63 61 62 63 61 60 59
93 82 66 60 60 58 63 65 69 68 68 65 63 63 61 58 57 49 47 45 44 41 39 40 37 38 42 45 53 61 73 84 87 86 89 90 91 95 96 98 98 98 98 93 80 74 68 70 74 74 62 50 33 26
81 70 64 61 67 68 68 72 71 72 71 65 65 62 62 63 60 55 51 49 45 44 43 42 43 45 48 55 61 62 73 83 86 88 89 88 88 93 94 97 98 98 98 97 88 82 81 84 84 72 56 39 29 23
80 75 70 76 69 74 74 73 74 75 68 65 68 68 65 62 60 55 50 47 46 46 46 46 47 46 52 55 54 55 62 66 71 79 86 84 84 94 96 97 98 98 98 98 95 91 91 89 85 65 51 38 30 27
72 77 82 76 80 78 76 76 78 73 69 70 70 68 66 61 56 52 50 49 50 51 50 49 48 49 45 47 44 40 40 40 48 69 71 77 79 92 96 97 97 97 97 98 98 98 98 94 86 69 57 49 41 38
86 85 86 87 81 79 81 82 78 72 74 74 71 69 64 60 55 50 49 53 55 54 52 50 48 44 39 33 32 32 34 35 37 46 62 69 75 84 93 96 97 97 97 97 98 98 98 95 85 76 65 56 52 46
87 87 84 82 76 80 83 80 75 71 73 74 70 65 60 57 55 55 55 56 57 56 55 49 38 30 26 24 28 35 37 37 35 37 48 61 70 80 84 96 98 98 97 97 98 98 97 96 89 81 74 62 57 53
87 89 86 81 79 79 77 75 75 74 73 68 68 64 61 59 58 57 56 57 57 53 44 38 32 23 26 31 35 42 42 39 42 44 49 58 67 73 77 84 97 98 98 97 98 98 97 94 87 80 73 62 59 56
92 89 86 79 73 74 78 77 73 70 65 66 65 62 60 58 56 53 53 56 51 39 35 32 27 27 31 37 43 37 32 40 46 52 58 64 70 71 73 77 93 97 98 97 97 97 94 85 82 72 64 56 51 49
92 84 73 69 71 72 74 74 70 68 64 64 60 57 57 56 55 53 52 47 37 30 34 35 33 32 31 31 28 27 27 31 46 67 70 75 77 76 78 84 88 94 97 97 95 91 87 76 65 57 52 51 51 50
71 67 70 71 69 70 71 71 68 65 62 59 57 54 53 53 53 54 50 36 33 36 38 38 34 30 26 24 21 20 20 23 33 55 75 85 82 84 85 88 91 94 92 91 87 80 70 61 58 57 56 56 56 54
67 74 69 68 69 67 68 66 62 59 58 57 56 53 53 56 57 55 46 37 37 38 38 38 39 27 23 20 19 20 21 21 27 42 51 65 85 89 86 88 89 91 89 84 73 60 63 65 67 69 68 65 63 60
67 67 63 63 63 58 59 58 57 57 56 55 57 56 55 56 53 46 45 38 39 42 43 38 38 27 22 20 25 29 31 32 32 39 42 42 46 56 75 87 87 87 82 70 63 71 72 68 63 61 62 64 64 62
62 62 60 57 55 53 55 56 56 55 57 57 57 57 57 55 50 43 40 42 45 46 51 47 44 30 26 25 29 33 35 36 37 38 45 41 36 36 37 42 55 70 79 77 79 81 77 71 66 68 71 71 67 61
59 58 56 56 55 54 56 56 56 54 53 52 54 51 49 46 45 41 44 48 55 62 62 59 56 44 35 29 32 32 33 41 41 40 40 44 38 32 31 30 30 33 40 54 66 76 74 67 67 69 72 70 63 58
57 55 54 55 56 55 54 54 52 47 43 43 44 44 42 42 48 55 58 55 56 64 71 71 65 59 47 36 33 31 36 39 45 49 51 45 39 36 28 25 26 26 28 34 37 41 47 58 64 70 74 67 60 57
53 52 53 53 53 51 46 46 47 48 49 50 52 51 52 54 57 60 56 54 52 56 59 61 66 68 64 50 37 32 33 35 39 40 44 46 40 36 32 29 25 23 23 24 29 32 36 48 62 75 75 68 63 63
55 54 52 52 49 47 47 49 52 52 49 44 42 40 37 36 31 28 29 31 37 46 47 48 48 49 49 50 53 47 43 43 41 40 40 42 38 32 29 28 27 26 25 24 25 26 34 49 73 80 74 69 67 64
51 50 49 52 54 57 54 47 43 41 38 34 29 27 26 27 26 24 20 22 26 29 33 37 45 48 48 50 49 47 45 45 44 40 39 37 36 31 27 25 24 25 28 27 26 31 39 61 81 81 75 70 70 68
58 60 60 55 49 44 39 35 33 32 32 34 35 39 43 45 40 34 32 34 35 36 37 38 37 37 40 42 44 49 50 48 45 42 41 37 33 29 26 24 25 26 28 33 35 40 50 63 80 78 75 71 71 70